Showing default

NIMBUS 6, 7924

Orbit data source: Space-Track

NIMBUS 6, 7924 is a payload satellite owned by GSFC (US) in SSO that was launched on Thu, 12 Jun 1975 UTC via a DELTA 2910 launch vehicle from the Air Force Western Test Range (AFWTR). Payload-class satellites include a variety of spacecraft equipped with specific instruments for various scientific and technological missions. These include communications satellites like Starlink; space stations such as the ISS; scientific satellites like the Hubble; Earth observation satellites from companies like Planet Labs, Umbra, and HawkEye 360; GPS; miniature CubeSats for education and research; and military/defense satellites.

Loading next visibility...
Identifier
7924, 1975-052A
Orbit
SSO
Last TLE update
11 hours ago
Origin
Manufacturer
GE/MSVD
Mission
Non-operational Civil Weather
Bus & Motor
NIMBUS, Unknown motor
Mass
827 kg wet, 827 kg dry
Launch date (UTC)
1975-06-12 (50 years ago)
Launch vehicle
DELTA 2910
Launch site
Air Force Western Test Range (AFWTR)
Object type
Payload
Rocket body
Debris
Shape & HBR
Cone + 2 Pan, 3.35 m
Radar Cross Section
2.947 m², Large (>1 m²)

Expand to show TLE details & history

TLE from 11 hours ago
0 NIMBUS 6
1 07924U 75052A   25181.59231316 -.00000024  00000-0  37149-4 0  9993
2 07924 100.0130  92.9943 0007910 358.2016  75.4265 13.40806299449016
Epoch: 2025-06-30T14:12Z
TLE epoch observation values (Epoch: 2025-06-30T14:12:55.857Z)
Latitude
71.02857°
Longitude
-69.86722°
Altitude
1,116.969 km
Speed
7.301 km/s
True Right ascension
04h 09m 03s
True Declination
70° 55' 40"
Sunlit
Object was in daylight at epoch
Visualization orbit readout
Latitude
-10.79824°
Longitude
139.40825°
Altitude
1,116.828 km
Speed
7.291 km/s
Apparent Right ascension
20h 38m 17s
Apparent Declination
-35° 33' 30"
Sunlit
Object is in full shadow
Visualization observer readout
Local Sidereal Time
13:09:36
Azimuth
108.291° ESE
Elevation
-37.49°
Doppler factor
1
Orbital elements
Apogee altitude
1,109.525 km
Perigee altitude
1,097.689 km
Semi-major axis
7,481.744 km
Eccentricity
0.00079
Inclination
100.013°
RAAN
92.9943°
Arg. of periapsis
358.2016°
True anomaly
Unknown
Mean anomaly
75.4265°
Eccentric anomaly
Unknown
Mean motion
3.35381 °/min
Orbital period
107.34 mins
BSTAR
0.000037149
Loading maneuver chart data...
Loading SW <> Apogee altitude chart data...
Loading historical data...
Loading historical data...
Loading historical data...
Loading historical data...
Loading historical data...
Loading historical data...
Loading historical data...

NIMBUS 6 Visibility forecast

Observer location: undefined°, undefined°

Span
Click to sort rows by Start time (UTC) header in descending order
Start Az.
Max El. time (UTC)
Max El. Az.
Max El.
End time (UTC)
End Az.
12 mins2025-07-01 06:33:37.183Z24.615° NE2025-07-01 06:39:37.183Z88.293° E38.989°2025-07-01 06:45:37.183Z175.805° S
9 mins2025-07-01 08:21:37.183Z342.722° N2025-07-01 08:25:37.183Z295.694° NW24.636°2025-07-01 08:30:37.183Z245.424° WSW
10 mins2025-07-01 16:51:37.183Z115.698° SE2025-07-01 16:56:37.183Z56.935° ENE26.998°2025-07-01 17:01:37.183Z5.991° NNE
11 mins2025-07-01 18:36:37.183Z191.138° SSW2025-07-01 18:41:37.183Z255.26° W36.334°2025-07-01 18:47:37.183Z331.199° NNW
|